This is the latest recevied weather packets stored in our database for station/object AI5BL. If no packets are shown the sender has not sent any weather packets the latest 10 day(s).
| Time | Temp. | Humidity | Pressure | Rain* | Wind** | Luminosity | Snow |
|---|---|---|---|---|---|---|---|
| 1777985607 | 16.11° C | 88% | 1016.4 hPa | 0 mm | - | 130 W/m² | - |
| 1777985303 | 16.11° C | 89% | 1016.5 hPa | 0 mm | - | 114 W/m² | - |
| 1777985000 | 15.56° C | 89% | 1016.2 hPa | 0 mm | - | 121 W/m² | - |
| 1777984696 | 15° C | 90% | 1016 hPa | 0 mm | - | 111 W/m² | - |
| 1777984393 | 15° C | 92% | 1016 hPa | 0 mm | - | 103 W/m² | - |
| 1777984089 | 14.44° C | 92% | 1016 hPa | 0 mm | - | 87 W/m² | - |
| 1777983786 | 13.89° C | 93% | 1015.9 hPa | 0 mm | - | 74 W/m² | - |
| 1777983482 | 13.89° C | 94% | 1016 hPa | 0 mm | - | 70 W/m² | - |
| 1777983180 | 13.33° C | 95% | 1015.9 hPa | 0 mm | - | 64 W/m² | - |
| 1777982876 | 12.78° C | 95% | 1016 hPa | 0 mm | - | 54 W/m² | - |
| 1777982572 | 12.78° C | 96% | 1015.9 hPa | 0 mm | - | 50 W/m² | - |
| 1777982271 | 12.78° C | 96% | 1015.7 hPa | 0 mm | - | 43 W/m² | - |
| 1777981968 | 12.22° C | 96% | 1015.8 hPa | 0 mm | - | 32 W/m² | - |
| 1777981666 | 12.22° C | 96% | 1015.7 hPa | 0 mm | - | 29 W/m² | - |
| 1777981361 | 12.22° C | 96% | 1015.6 hPa | 0 mm | - | 26 W/m² | - |
| 1777981059 | 11.67° C | 96% | 1015.5 hPa | 0 mm | - | 20 W/m² | - |
| 1777980755 | 11.67° C | 97% | 1015.5 hPa | 0 mm | - | 16 W/m² | - |
| 1777980451 | 11.67° C | 97% | 1015.3 hPa | 0 mm | - | 12 W/m² | - |
| 1777980149 | 11.67° C | 97% | 1015.5 hPa | 0 mm | - | 7 W/m² | - |
| 1777979849 | 11.67° C | 97% | 1015.3 hPa | 0 mm | - | 5 W/m² | - |
| 1777979545 | 11.67° C | 96% | 1015.2 hPa | 0 mm | - | 3 W/m² | - |
| 1777979241 | 11.67° C | 96% | 1015.4 hPa | 0 mm | - | 2 W/m² | - |
| 1777978939 | 11.67° C | 96% | 1015.3 hPa | 0 mm | - | 1 W/m² | - |
| 1777978635 | 11.67° C | 97% | 1015.4 hPa | 0 mm | - | 0 W/m² | - |
| 1777978330 | 11.67° C | 97% | 1015.6 hPa | 0 mm | - | 0 W/m² | - |
* Rain latest hour (hover to see other rain measurements)
** Current wind speed in m/s (hover to see current wind gust speed)